Regional Weather Roundup
Issued by NWS Wakefield, VA

Home | Current Version | Previous Version | Graphics & Text | Print | Product List | Glossary Off
Versions: 1 2 3 4 5 6 7 8 9 10 11 12 13 14 15 16 17 18 19 20 21 22 23 24 25 26 27 28 29 30 31 32 33 34 35 36 37 38 39 40 41 42 43 44 45 46 47 48 49 50

000
ASUS41 KAKQ 030914
RWRAKQ

REGIONAL WEATHER ROUNDUP
NATIONAL WEATHER SERVICE WAKEFIELD VA
500 AM EDT THU SEP 03 2015

Note: "fair" indicates few or no clouds below 12,000 feet with no
significant weather and/or obstructions to visibility. * = Denotes
station may not report precipitation (e.g., rain,snow,etc.),
thunder or fog.

VAZ042-051-052>054-056-031000-
NORTHERN VIRGINIA

CITY           SKY/WX    TMP DP  RH WIND       PRES   REMARKS
WASH NATIONAL  CLEAR     75  67  76 NE3       29.91S
DULLES         CLEAR     67  65  93 CALM      29.92S
FORT BELVOIR   CLEAR     66  65  96 CALM      29.90F FOG
QUANTICO       CLEAR     70  64  81 NW3       29.91F
FREDERICKSBRG* CLEAR     69  69  99 W3        29.91S
STAFFORD*      CLEAR     65  64  96 CALM      29.95S
WARRENTON      CLEAR     65  65 100 CALM      29.92S FOG
CULPEPER*      CLEAR     62  62  99 CALM      29.93S FOG
MANASSAS*      CLEAR     66  64  94 CALM      29.92S
LEESBURG*      CLEAR     73  68  83 N6        29.93S
WINCHESTER     CLEAR     68  64  88 CALM      29.95S
FRONT ROYAL*   FAIR      64  64 100 S6        29.95S
LURAY*         FOG       61  61 100 CALM      29.98S VSB 1/4
$$

VAZ048-049-060>072-079>083-031000-
CENTRAL AND SOUTH CENTRAL VIRGINIA

CITY           SKY/WX    TMP DP  RH WIND       PRES   REMARKS
RICHMOND       CLEAR     67  65  93 SW5       29.92F
CHESTERFIELD*  FAIR      66  55  68 S3        29.94F
PETERSBURG*    CLEAR     65  65 100 CALM      29.94S FOG
HANOVER        CLEAR     68  66  93 W3        29.94S
TAPPAHANNOCK*  CLEAR     68  65  88 CALM      29.92S
QUINTON*       FAIR      67  67  98 CALM      29.91F
CHARLOTTSVILLE CLEAR     67  64  90 CALM      29.94S
GORDONSVILLE*  FAIR      64  64  98 CALM      29.93S
ORANGE*        CLEAR     64  63  94 CALM      29.94S FOG
LOUISA*        CLEAR     66  64  94 W3        29.92S
BUMPASS*       FAIR      65  64  99 MISG      29.92S
FARMVILLE*     PTCLDY    64  64 100 CALM      29.93S FOG
CREWE*         FAIR     N/A N/A N/A CALM      29.94S
FORT PICKETT*    N/A     64  63  97 CALM      29.94F VSB 1/2
CHASE CITY*    FAIR      66  66 100 CALM      29.95S
CLARKSVILLE*   CLOUDY    66  66 100 CALM      29.95R VSB 1/4
SOUTH HILL*    MOCLDY    65  65 100 CALM      30.00S
LAWRENCEVILLE* CLOUDY    66  66 100 CALM      29.93F VSB 1/4
EMPORIA*       FOG       68  68 100 CALM      29.95S VSB 1/4
$$

VAZ088>098-031000-
SOUTHEAST VIRGINIA

CITY           SKY/WX    TMP DP  RH WIND       PRES   REMARKS
NORFOLK        PTCLDY    73  69  87 W6        29.91F
VIRGINIA BEACH MOCLDY    75  68  78 W5        29.90F
NORFOLK NAVAL  MOCLDY    74  69  85 W6        29.93S
WEST POINT*    CLEAR     72  68  88 CALM      29.93S
SALUDA*        FAIR      69  68  94 CALM      29.90F
NEWPORT NEWS   CLEAR     71  70  96 W5        29.92S FOG
LANGLEY AFB    PTCLDY    72  70  94 W5        29.90F
FORT EUSTIS    CLEAR     72 N/A N/A W6        29.90S
WILLIAMSBURG*  FAIR      73  72  94 CALM      29.93S
HR EXEC AP*      N/A     70  66  88 W3        29.94F
FRANKLIN*      CLOUDY    69  69  99 CALM      29.93F FOG
WAKEFIELD      CLEAR     70  66  87 CALM      29.93S FOG
$$

VAZ020-022-025-037-045-031000-
WEST CENTRAL AND SOUTHWEST VIRGINIA

CITY           SKY/WX    TMP DP  RH WIND       PRES   REMARKS
STAUNTON*      FOG       63  61  95 CALM      30.02S VSB 1
WAYNESBORO*    FAIR      63  62  96 CALM      30.01S
HOT SPRINGS VA CLEAR     65  63  93 NW9       30.12S
LYNCHBURG      CLEAR     61  60  97 CALM      29.98S
DANVILLE       CLEAR     65  63  93 SW3       29.96F
SOUTH BOSTON*  PTSUNNY   64  62  95 CALM      29.95F VSB 1/2
MARTINSVILLE   FOG       63  63 100 CALM      30.01S VSB 1/2
ROANOKE        CLEAR     67  64  90 N7        30.02S
BLACKSBURG     CLEAR     64  64 100 CALM      30.09S FOG
DUBLIN*        CLOUDY    65  64  96 S5        30.08R
MARION*        PTCLDY    62  60  94 CALM      30.13R FOG
HILLSVILLE*    PTCLDY    64  62  93 SW5       30.09R
RICHLANDS*     FAIR      65  36  33 CALM      30.11S
WISE*          MOCLDY    66  63  88 CALM      30.12S
ABINGDON*      PTCLDY    65  62  90 CALM      30.09R
$$

MDZ021>025-VAZ099-100-031000-
SOUTHERN MARYLAND AND THE DELMARVA PENINSULA

CITY           SKY/WX    TMP DP  RH WIND       PRES   REMARKS
PATUXENT RIVER CLEAR     69  66  90 W6        29.89F
BAY BRIDGE APT   N/A     73  68  83 NW6       29.89S
LEONARDTOWN    NOT AVBL
DOVER          CLEAR     72  72 100 W3        29.87R
GEORGETOWN     CLEAR     72  71  97 CALM      29.89S FOG
EASTON         NOT AVBL
CAMBRIDGE      CLEAR     72  68  88 CALM      29.89S
SALISBURY      CLEAR     70  69  97 SW6       29.89S FOG
OCEAN CITY     PTCLDY    73  70  90 W7        29.88S
WALLOPS ISLAND CLEAR     74  72  93 W7        29.89F
ACCOMACK*      CLEAR    N/A N/A N/A W6        29.90S
$$

NCZ012>017-030>032-031000-
NORTH CENTRAL AND EASTERN NORTH CAROLINA

CITY           SKY/WX    TMP DP  RH WIND       PRES   REMARKS
ROANOKE RAPIDS FOG       68  68 100 CALM      29.94S VSB 1/4
RALEIGH        FOG       70  69  97 CALM      29.95F VSB 1/2
ELIZABETH CITY PTCLDY    70  69  97 W8        29.92F
AHOSKIE*       FOG       66  65  98 CALM      29.93F VSB 1/4
EDENTON*       CLEAR     69  67  96 CALM      29.93S
CURRITUCK*     PTCLDY    71  68  90 W6        29.93S
KILL DEVIL HLS MOCLDY    75  71  86 CALM      29.91S
MANTEO         PTCLDY    73  69  90 CALM      29.92S
CAPE HATTERAS  CLOUDY    75  73  93 W3        29.90F
TARBORO*       CLOUDY    70  69  97 CALM      29.94F FOG
GOLDSBORO      PTCLDY    69  69  99 CALM      29.92R
WASHINGTON     PTCLDY    69  68  97 SW3       29.93S
GREENVILLE       N/A     70  70 100 CALM      29.95F FOG
NEW BERN       LGT RAIN  70  67  90 SW8       29.93F
WILMINGTON     PTCLDY    75  72  90 N8        29.95S
$$

VAZ048-031000-
ELSEWHERE

CITY           SKY/WX    TMP DP  RH WIND       PRES   REMARKS
HARRISBURG PA  PTCLDY    73  66  78 NW8       29.90S
BALTIMORE      CLEAR     69  67  93 W3        29.89S
ANNAPOLIS      CLEAR     74  69  85 NW5       29.89R
ANDREWS AFB    CLEAR     73  66  79 W3        29.90S
PHILADELPHIA   PTCLDY    76  64  66 NW3       29.88S
HENDERSON NC   FOG       66  64  93 CALM      29.95F VSB 1/4
GREENSBORO     PTCLDY    71  65  81 NE3       29.97S
ROCKY MOUNT    FOG       70  69  97 NE6       29.94S VSB 3/4
$$

VAZ100-031000-
MARINE

STATION/POSITION TIME  TEMP    WIND        PRES    WAVE   SWELL
                       AIR SEA DIR/SP/G            HT/PER HT/PER
                 (UTC) (F)     (DEG/KT/KT) (MB)    (FT/S) (FT/S)
BRANDYWINE LGT   0800   75 76  310/  6/  7 1011.8S
CAPE MAY NJ      0800   76 79  300/  3/  4 1011.2F
LEWES DE         0800   74 76  270/  5/  5 1011.5F
15NM E FENWICK I 0850   77 79  290/ 10/ 14 1011.6F   1/13   2/13
OCEAN-CITY-INLET 0800   75 78  320/  5/  6 1011.0S
GOOSES REEF MD   0900   77 80  320/ 10/ 12 1013.1S
COVE POINT MD    0800   76     310/  9/ 13 1013.0R
SOLOMONS ISLAND  0800      81                N/A
BISHOPS HEAD MD  0800   78 80  280/ 12/ 12 1011.5R
PINEY POINT MD   0805          320/  9/ 10   N/A
POTOMAC MD       0900   75 80  290/ 10/ 12 1011.1F   1/ 2
CAMBRIDGE MD     0800   75 81  250/  4/  6 1011.2S
LEWISETTA VA     0800   72 81  300/  5/  5 1012.0F
RAPPAHANNOCK LGT 0800          270/ 10/ 11 1013.1F
STINGRAY PT      0900   74 79  260/  8/ 12 1012.8F   1
YORK RVR RNG VA  0800   75     290/  8/  9 1012.4F
JAMESTOWN VA     0900   72 81  260/  6/  8   N/A
DOMINION TERM VA 0800   73     280/  9/ 10 1013.0F
KIPTOPEKE VA     0800      80  290/  7/  8   N/A
CHES BAY BRIDGE  0800   76 79  240/ 11/ 13 1012.5F
CAPE HENRY VA    0800   75     270/  6/  9   N/A
CHESAPEAKE LGHT  0800   76     300/ 12/ 12 1013.6F
WILLOUBY STN VA  0800   74     280/  9/ 10 1013.9F
CAPE HENRY BUOY  0828      79                N/A     2/14
1ST LANDING BUOY 0900      79              1012.4F   1/ 2
CAPE CHARLES BUO 0826      78                N/A     2/13   2/13
OFFSHORE WE BUOY 0811      79                N/A     2/ 3   2/13
64NM E OF VA BCH 0850   77 79  280/ 10/ 12 1012.3F   2/ 8   2/ 8
DUCK PIER NC     0800   76 80  280/  9/ 11 1012.4R
44100 DUCK FRF   0824      80                N/A     1/ 9
44056 DUCK FRF   0811      80                N/A     1/13
OREGON INLET NC  0800   75 83  350/  5/  8 1013.0R
HATTERAS NC      0800   77 83  280/  9/ 10 1012.6F
DIAMOND SHLS NC  0850   81 85  310/  6/  8 1012.8F   2/13   2/13
CAPE LOOKOUT NC  0900   75     300/ 11/ 13 1013.4R
$$


USA.gov is the U.S. government's official web portal to all federal, state and local government web resources and services.